Location: Unspecified
(0.0000°N, 0.0000°E)
Time: 16:21:24
(UTC+00:00)

Altair - Pass Details

Date: 28 November 2019
Orbit: 1502 x 1682 km, 47.2° (Epoch: 12 December)

Event Time Altitude Azimuth Distance (km) Brightness Sun altitude
Rises 23:40:17 0° 269° (W) 4,769 - -68.5°
Reaches altitude 10° 23:47:33 10° 305° (NW) 3,726 - -68.6°
Maximum altitude 23:49:07 11° 315° (NW) 3,676 - -68.6°
Drops below altitude 10° 23:50:41 10° 325° (NW) 3,703 - -68.6°
Sets 23:57:51 0° 2° (N) 4,642 - -68.5°
